Lid_Strength_Index
-1 -1 -1 -1 -1 -1 -1 -1 -1 -1 -1 -1 -1 -1 -1 -1 -2 -1 -2 -2 -2 -1 -1 -1 -1 -2 -2 -2 -2 -3 -2 -1 -1 -1 -1 -2 -2 -2 -1 -1 -2 -2 -1
-1 -1 -1 -1 -1 -1 -1 -1 -1 -1 -1 -1 -1 -1 -1 -1 -2 -2 -1 -2 -3 -2 -1 -1 -1 -1 -2 -2 -2 -2 -2 -1 -1 -1 -1 -1 -2 -2 -2 -1 -1 -2 -2
-2 -1 -1 -1 -1 -2 -2 -2 -1 -1 -1 -1 -1 -1 -1 -1 -1 -1 -1 -1 -2 -3 -2 -1 -1 -1 -2 -2 -2 -2 -2 -2 -1 -1 -1 -1 -1 -1 -2 -1 -1 -2 -2
-2 -1 -1 -1 -2 -2 -1 -1 -0 -0 -0 -0 -0 -0 -0 -1 -1 -1 -1 -1 -2 -1 -1 -2 -2 -2 -2 -2 -2 -1 -2 -2 -1 -1 -1 -1 -1 -1 -1 -2 -1 -1 -2
-1 -1 -1 -1 -2 -1 -1 -0 -0 -0 0 0 0 -0 -0 -0 -1 -1 -1 -1 -2 -1 -1 -2 -1 -2 -2 -2 -2 -2 -2 -2 -2 -1 -1 -1 -1 -1 -2 -2 -2 -1 -1
-1 -1 -1 -1 -1 -0 0 -0 0 -0 0 0 1 0 0 -0 -0 -0 -1 -1 -1 -1 -2 -2 -2 -1 -2 -2 -2 -2 -2 -2 -2 -1 -1 -1 -1 -1 -1 -1 -2 -1 -1
-1 -1 -0 -0 -0 0 1 1 1 1 1 0 1 1 1 0 -0 -0 -1 -1 -1 -1 -1 -1 -2 -1 -1 -2 -2 -2 -2 -2 -2 -2 -1 -1 -1 -1 -1 -1 -2 -2 -1
-1 -1 -0 -0 -0 0 0 0 0 1 1 0 2 2 4 2 1 0 -0 -0 -1 -1 -1 -1 -1 -1 -1 -1 -2 -2 -2 -2 -2 -2 -1 -1 -1 -1 -1 -1 -1 -1 -1
-1 -1 -1 -0 -0 0 1 0 0 1 2 1 0 2 4 5 2 1 1 0 -0 -0 -1 -1 -1 -1 -2 -2 -1 -1 -1 -1 -2 -1 -2 -1 -1 -1 -1 -1 -1 -1 -1
-0 -1 -0 -0 -0 -0 -0 0 0 0 1 2 1 1 1 1 4 4 1 1 0 0 -0 -0 -1 -1 -1 -1 -2 -1 -1 -1 -2 -2 -2 -1 -1 -1 -1 -1 -1 -1 -1
-0 -0 -0 -0 -0 0 -0 -0 0 0 1 1 2 2 2 2 1 3 5 3 1 0 -0 -0 -1 -1 -1 -1 -1 -1 -0 -1 -1 -1 -2 -1 -2 -1 -1 -1 -1 -1 -1
0 -0 -0 -0 -0 -0 -0 0 0 0 1 1 1 1 2 3 3 3 4 3 2 1 0 -0 -0 -1 -1 -1 -1 -0 0 -0 -0 -0 -1 -1 -1 -1 -1 -1 -1 -1 -1
1 0 0 0 0 0 -0 -0 0 0 0 1 1 1 1 1 1 1 2 3 3 2 1 0 -0 -1 -1 -1 -2 -0 -0 -0 0 1 0 -0 -0 -1 -1 -1 -1 -1 -1
0 -0 0 0 0 -0 -0 -0 0 0 0 1 1 1 1 1 1 1 2 2 3 3 2 1 -0 -1 -1 -1 -1 -1 -1 0 1 1 1 1 0 0 0 0 -0 -0 -0
0 -0 -0 0 0 -0 0 0 1 1 1 0 1 0 1 1 0 0 1 1 2 4 4 2 2 -1 -1 -1 -1 -2 -2 1 0 1 2 2 1 1 1 1 1 1 1
0 0 1 0 0 0 0 0 0 0 1 1 1 1 1 0 0 0 0 1 1 2 4 1 1 -0 -1 -1 -1 -2 -1 1 1 1 2 2 2 2 2 2 2 2 1
0 0 0 1 1 1 0 1 0 1 1 1 0 1 1 0 1 1 0 0 1 1 3 2 -0 -0 0 0 -1 -1 -1 -1 -1 2 2 2 4 3 3 3 3 2 2
0 0 0 1 1 1 0 1 1 1 1 1 1 1 1 1 1 0 1 0 1 0 2 3 1 1 1 -0 -0 -0 -0 -1 -1 2 3 3 4 5 4 4 4 4 4
0 0 0 1 1 1 1 0 1 1 1 1 1 1 1 1 1 1 1 1 1 1 1 2 2 1 0 0 0 0 0 -0 -1 2 3 4 4 4 4 5 5 5 5
0 0 0 1 0 1 1 0 1 1 1 1 0 1 0 1 1 1 1 1 0 1 1 2 2 2 1 0 0 2 2 0 1 -1 1 2 3 4 5 5 5 5 5
1 1 1 1 0 1 1 1 1 1 1 1 1 1 0 1 2 1 1 0 1 1 2 2 3 2 2 2 2 1 2 2 1 0 0 -0 -0 0 2 4 3 4 5
1 1 1 1 1 1 9 8 2 1 1 1 1 1 0 2 2 4 4 5 2 1 2 2 3 3 2 2 1 2 2 3 4 0 1 1 -0 0 1 -0 4 6 6
1 1 1 1 1 1 10 10 7 1 1 1 1 1 1 0 1 0 5 6 5 5 4 1 2 2 2 1 1 2 2 2 2 1 1 2 1 1 0 2 6 7 7
1 2 1 1 1 1 11 10 8 0 1 1 0 0 0 0 0 0 0 1 0 0 0 0 0 1 0 -0 0 1 1 1 1 1 -0 3 2 3 2 2 7 7 8
2 2 1 1 2 2 12 10 4 1 1 1 0 0 0 0 7 8 1 1 1 1 6 7 7 7 7 6 3 1 2 3 3 2 1 2 2 3 2 3 4 7 8
2 2 2 1 4 1 12 10 4 1 1 1 0 0 8 3 11 10 1 1 2 2 1 1 0 3 5 3 6 -0 1 3 3 3 1 2 2 2 3 1 2 4 5